CST,Max TemperatureF,Mean TemperatureF,Min TemperatureF,Max Dew PointF,MeanDew PointF,Min DewpointF,Max Humidity, Mean Humidity, Min Humidity, Max Sea Level PressureIn, Mean Sea Level PressureIn, Min Sea Level PressureIn, Max VisibilityMiles, Mean VisibilityMiles, Min VisibilityMiles, Max Wind SpeedMPH, Mean Wind SpeedMPH, Max Gust SpeedMPH,PrecipitationIn, CloudCover, Events, WindDirDegrees
2012-11-1,78,64,48,60,51,42,100,76,32,30.10,30.03,29.99,10,8,0,7,2,,0.00,1,,344
2012-11-2,80,63,46,66,57,46,100,89,58,30.10,30.06,30.01,10,5,0,10,1,,0.00,2,,233
2012-11-3,82,66,51,66,59,52,100,90,52,30.15,30.09,30.06,10,4,0,9,1,,0.00,0,Fog,236
2012-11-4,78,66,53,65,59,53,100,92,57,30.13,30.08,30.04,10,3,0,12,1,18,0.02,2,Fog-Rain,326
2012-11-5,70,58,46,55,51,41,100,85,36,30.10,30.01,29.90,10,6,0,9,2,22,0.31,3,Fog-Rain-Thunderstorm,9
2012-11-6,63,52,42,51,46,39,97,82,56,30.06,30.01,29.93,10,8,2,16,7,22,0.00,3,,344
2012-11-7,66,52,37,48,39,35,100,82,32,30.16,30.06,29.98,10,5,0,14,1,21,0.00,0,Fog,333
2012-11-8,64,50,35,44,39,34,100,81,36,30.27,30.22,30.17,10,7,0,8,3,,0.00,0,Fog,1
2012-11-9,71,52,34,52,44,33,100,87,44,30.30,30.24,30.21,10,4,0,9,1,,0.00,0,Fog,122
2012-11-10,73,58,42,60,47,41,100,86,46,30.30,30.24,30.20,10,5,1,15,2,20,0.00,1,Rain,113
2012-11-11,79,72,64,63,60,56,84,68,45,30.23,30.19,30.15,10,10,10,17,11,29,0.00,4,Rain,132
2012-11-12,72,60,48,66,55,39,94,85,69,30.33,30.23,30.11,10,9,2,20,10,26,0.03,6,Rain,357
2012-11-13,60,50,39,38,32,25,77,56,31,30.38,30.31,30.25,10,10,10,22,13,30,0.00,0,,6
2012-11-14,64,50,37,40,36,33,89,66,33,30.30,30.26,30.20,10,10,10,9,4,,0.00,0,,349
2012-11-15,66,52,37,46,42,35,100,81,45,30.30,30.24,30.19,10,9,5,10,3,18,0.00,1,,14
2012-11-16,66,50,35,46,40,35,100,88,45,30.30,30.26,30.22,10,4,0,13,1,21,0.00,1,Fog,20
2012-11-17,66,52,37,44,40,36,100,73,40,30.36,30.30,30.26,10,10,4,12,3,16,0.00,0,,24
2012-11-18,69,52,36,46,41,35,97,72,38,30.34,30.29,30.25,10,10,7,10,3,,0.00,0,,22
2012-11-19,73,57,41,53,45,39,100,84,41,30.29,30.22,30.18,10,6,0,7,1,,0.00,0,Fog,52
2012-11-20,71,56,41,50,43,39,100,83,39,30.22,30.17,30.12,10,5,0,9,1,,0.00,0,Fog,3
2012-11-21,75,57,39,54,44,38,100,83,37,30.22,30.17,30.12,10,5,0,8,1,,0.00,0,Fog,355
2012-11-22,73,56,39,54,44,37,100,89,38,30.25,30.20,30.18,10,3,0,9,0,,0.00,0,Fog,223
2012-11-23,75,57,39,56,48,39,100,79,43,30.28,30.22,30.14,10,6,0,15,2,18,0.00,2,Fog,321
2012-11-24,61,46,30,49,34,28,92,61,31,30.30,30.23,30.18,10,10,10,13,8,18,0.00,0,,354
2012-11-25,63,44,26,44,34,24,100,80,35,30.25,30.17,30.13,10,7,0,7,1,,0.00,0,Fog,146
2012-11-26,71,54,37,63,55,36,100,89,68,30.18,30.14,30.11,10,7,0,10,2,,0.01,5,Fog-Rain,146
2012-11-27,66,63,60,63,61,59,100,93,88,30.20,30.14,30.09,10,7,2,18,3,28,0.54,6,Rain,46
2012-11-28,63,49,33,39,35,31,92,70,34,30.38,30.35,30.31,10,10,9,12,5,,0.00,0,,12
2012-11-29,64,48,32,48,41,30,97,77,43,30.38,30.32,30.27,10,10,5,9,2,,0.00,1,,30
2012-11-30,73,58,44,57,48,42,100,88,53,30.30,30.25,30.20,10,4,0,7,2,,0.00,1,Fog,35